Regional Weather Roundup
Issued by NWS Wakefield, VA

Home | Current Version | Previous Version | Text Only | Print | Product List | Glossary On
Versions: 1 2 3 4 5 6 7 8 9 10 11 12 13 14 15 16 17 18 19 20 21 22 23 24 25 26 27 28 29 30 31 32 33 34 35 36 37 38 39 40 41 42 43 44 45 46 47 48 49 50
000
ASUS41 KAKQ 281114
RWRAKQ

REGIONAL WEATHER ROUNDUP
NATIONAL WEATHER SERVICE WAKEFIELD VA
700 AM EDT SAT MAR 28 2015

Note: "fair" indicates few or no clouds below 12,000 feet with no
significant weather and/or obstructions to visibility. * = Denotes
station may not report precipitation (e.g., rain,snow,etc.),
thunder or fog.

VAZ042-051-052>054-056-281200-
NORTHERN VIRGINIA

CITY           SKY/WX    TMP DP  RH WIND       PRES   REMARKS
WASH NATIONAL  MOCLDY    34  16  47 NW14      29.94R WCI  25
DULLES         PTCLDY    28  12  51 NW16G29   29.95R WCI  16
FORT BELVOIR   PTCLDY    31  15  52 NW14G23   29.95R WCI  21
QUANTICO       MOCLDY    33  15  47 N10G25    29.97R WCI  25
FREDERICKSBRG* PTCLDY    33  20  59 NW8       29.96R
STAFFORD*      MOCLDY    31  19  61 NW7       30.00R
WARRENTON      PTCLDY    30  20  65 NW16G22   29.97R WCI  19
CULPEPER*      CLOUDY    30  16  55 N9G16     29.98R
MANASSAS*      CLEAR     28  16  59 NW23G30   29.97R WCI  14
LEESBURG*      CLEAR     28  14  54 NW16G26   29.96R WCI  17
WINCHESTER     CLEAR     27   5  39 NW15      29.97R WCI  15
FRONT ROYAL*   FAIR      27   9  46 N12G18    29.97R WCI  16
LURAY*         CLOUDY    30  14  51 NW7G20    29.96R
$$

VAZ048-049-060>072-079>083-281200-
CENTRAL AND SOUTH CENTRAL VIRGINIA

CITY           SKY/WX    TMP DP  RH WIND       PRES   REMARKS
RICHMOND       MOCLDY    35  18  49 N14       29.93R
CHESTERFIELD*  CLOUDY    36  12  38 N13       29.94R
PETERSBURG*    CLOUDY    37  26  64 N8        29.94R
HANOVER        MOCLDY    33  17  51 VRB7      29.95R
TAPPAHANNOCK*  CLOUDY    35  15  44 NW12G22   29.92R
QUINTON*       CLOUDY    34  19  55 NW9       29.92R
CHARLOTTSVILLE CLOUDY    31  13  47 NW14G20   29.94R WCI  21
GORDONSVILLE*  CLOUDY    32  15  49 CALM      29.95R
ORANGE*        CLOUDY    32  19  59 NW14G20   29.97R WCI  22
LOUISA*        CLOUDY    34  19  55 N7        29.92R
BUMPASS*       CLOUDY    32  18  57 N7        29.94R
FARMVILLE*     FLURRIES  36  28  73 CALM      29.93R
CREWE*         CLOUDY    33  32  94 MISG      29.93R
FORT PICKETT*  CLOUDY    33  32  98 N3        29.92R
CHASE CITY*    CLOUDY    35  30  83 W7        29.93R
CLARKSVILLE*   CLOUDY    34  30  86 NW10G17   29.92R
SOUTH HILL*    CLOUDY    35  33  94 W3        29.98R
LAWRENCEVILLE* CLOUDY    34  33  98 CALM      29.92R
EMPORIA*       MIX PCPN  34  32  93 NW9       29.94R
$$

VAZ088>098-281200-
SOUTHEAST VIRGINIA

CITY           SKY/WX    TMP DP  RH WIND       PRES   REMARKS
NORFOLK        CLOUDY    39  27  62 N14G20    29.87R
VIRGINIA BEACH CLOUDY    41  29  62 N21G30    29.86R
NORFOLK NAVAL  CLOUDY    42  26  53 N20G30    29.89R
WEST POINT*    CLOUDY    38  21  51 NW9       29.93R
SALUDA*        CLOUDY    36  22  58 NW10G26   29.89R
NEWPORT NEWS   CLOUDY    40  24  53 N18G30    29.89
LANGLEY AFB    CLOUDY    37  27  65 N15       29.87R
FORT EUSTIS    CLOUDY    38  26  61 N10G23    29.88R
WILLIAMSBURG*  CLOUDY    37  28  70 NW12G18   29.91R
HR EXEC AP*    CLOUDY    39  28  65 NW7       29.90R
FRANKLIN*      CLOUDY    37  29  71 NW9G17    29.91R
WAKEFIELD      CLOUDY    38  27  64 N6        29.91R
$$

VAZ020-022-025-037-045-281200-
WEST CENTRAL AND SOUTHWEST VIRGINIA

CITY           SKY/WX    TMP DP  RH WIND       PRES   REMARKS
STAUNTON*      CLOUDY    27  16  62 N7        29.95R
WAYNESBORO*    CLOUDY    26   6  43 W9G16     29.91R
HOT SPRINGS VA CLOUDY    14   7  73 W16G23    29.76S WCI  -2
LYNCHBURG      MOCLDY    29  13  51 W6        29.95R
DANVILLE       PTCLDY    35  19  52 NW9       29.97R
SOUTH BOSTON*  CLOUDY    35  21  57 NW9       29.95R
MARTINSVILLE   CLOUDY    31  17  55 N16G22    30.00R WCI  20
ROANOKE        MOCLDY    27   9  46 NW14G26   29.99R WCI  16
BLACKSBURG     CLOUDY    22   8  55 NW12      29.97R WCI  11
DUBLIN*        MOCLDY    24  10  55 NW12      29.96R WCI  13
MARION*        FLURRIES  23  13  67 NW12G21   29.96R WCI  11
HILLSVILLE*    CLOUDY    22  13  70 NW15G26   29.89R WCI   8
RICHLANDS*     CLOUDY    21  10  63 NW8       29.96R
WISE*          CLOUDY    23  14  68 NW7       29.98R
ABINGDON*      CLOUDY    27  11  51 N13G18    30.00R WCI  16
$$

MDZ021>025-VAZ099-100-281200-
SOUTHERN MARYLAND AND THE DELMARVA PENINSULA

CITY           SKY/WX    TMP DP  RH WIND       PRES   REMARKS
PATUXENT RIVER CLOUDY    35  19  52 NW20G30   29.89R WCI  24
BAY BRIDGE APT   N/A     34  21  60 NW18      29.88R WCI  23
LEONARDTOWN    CLOUDY    34  19  55 NW14G20   29.91R WCI  24
DOVER          MIX PCPN  36  30  80 W14       29.83R
GEORGETOWN     CLOUDY    36  27  69 NW7       29.83R
EASTON         PTCLDY    36  25  64 NW12      29.90R
CAMBRIDGE      PTCLDY    36  21  55 NW12G20   29.86R
SALISBURY      CLOUDY    36  24  62 NW16G23   29.84R
OCEAN CITY     CLOUDY    36  28  73 NW14      29.81R
WALLOPS ISLAND MOCLDY    36  26  67 NW14G22   29.84R
ACCOMACK*      CLOUDY    37  25  60 NW14G30   29.86R
$$

NCZ012>017-030>032-281200-
NORTH CENTRAL AND EASTERN NORTH CAROLINA

CITY           SKY/WX    TMP DP  RH WIND       PRES   REMARKS
ROANOKE RAPIDS DRIZZLE   36  34  93 CALM      29.93R
RALEIGH        PTCLDY    36  27  69 CALM      29.95R
ELIZABETH CITY CLOUDY    39  34  82 NW13      29.88R
AHOSKIE*       CLOUDY    37  33  87 NW3       29.92R
EDENTON*       CLOUDY    40  34  78 NW12      29.90R
CURRITUCK*     CLOUDY    40  33  76 NW8       29.87R
KILL DEVIL HLS PTCLDY    41  33  73 NW8G20    29.84R
MANTEO         CLOUDY    42  36  80 N10G17    29.86R
CAPE HATTERAS  CLOUDY    42  36  79 NW12G22   29.86R
TARBORO*       DRIZZLE   37  35  90 NW8       29.95R
GOLDSBORO      CLOUDY    38  38  99 N8        29.93R
WASHINGTON     PTCLDY    38  36  89 NW6       29.92R
GREENVILLE     DRIZZLE   37  36  93 NW8       29.96R
NEW BERN       CLOUDY    41  37  86 NW9       29.93R
WILMINGTON     RAIN      42  39  89 NW17      29.94R FOG
$$

VAZ048-281200-
ELSEWHERE

CITY           SKY/WX    TMP DP  RH WIND       PRES   REMARKS
HARRISBURG PA  LGT SNOW  28  22  78 NW20      29.90R FOG     WCI  15
BALTIMORE      MOCLDY    32  15  49 W16G25    29.89R WCI  21
ANNAPOLIS      MOCLDY    34  19  54 NW14G21   29.89R WCI  25
ANDREWS AFB    PTCLDY    31  17  55 NW21      29.90R WCI  19
PHILADELPHIA   MOCLDY    35  19  52 N16G28    29.83R
HENDERSON NC   MOCLDY    35  29  79 W7        29.94R
GREENSBORO     PTCLDY    33  20  58 NW8       29.95R
ROCKY MOUNT    CLOUDY    36  34  92 CALM      29.94R
$$

VAZ100-281200-
MARINE

STATION/POSITION TIME  TEMP    WIND        PRES    WAVE   SWELL
                       AIR SEA DIR/SP/G            HT/PER HT/PER
                 (UTC) (F)     (DEG/KT/KT) (MB)    (FT/S) (FT/S)
BRANDYWINE LGT   1000   38 40  350/ 23/ 26 1008.8R
CAPE MAY NJ      1000   38 43   CALM  /  4 1008.2R
LEWES DE         1000   40 43  340/ 21/ 25 1008.8R
15NM E FENWICK I 1050   39 40              1007.9R   5/10
OCEAN-CITY-INLET 1000   39 39  340/ 11/ 14 1008.5R
WACHAPREAGUE VA  1000   39 47  330/  6/ 14 1009.7R
THOMAS POINT MD  1100                        N/A
COVE POINT MD    1000   35     350/ 22/ 24 1011.0R
SOLOMONS ISLAND  1000      43                N/A
BISHOPS HEAD MD  1000   36 44  330/ 14/ 22 1010.2R
PINEY POINT MD   1006          340/ 22/ 28   N/A
CAMBRIDGE MD     1000   37 44  320/ 14/ 24 1010.6R
LEWISETTA VA     1000   37 45              1011.4R
RAPPAHANNOCK LGT 1000          320/ 25/ 29 1010.6R
STINGRAY PT      1100   38 44  330/ 17/ 21   N/A     2/ 3
YORK RVR RNG VA  1000   40     340/ 23/ 26 1010.0R
YORKTOWN VA      1000   39 47  330/ 17/ 23 1010.8R
DOMINION TERM VA 1000   40     360/ 15/ 22 1010.8R
KIPTOPEKE VA     1000      49  350/ 24/ 28   N/A
CHES BAY BRIDGE  1000   40 43  320/ 26/ 31 1009.8R
CAPE HENRY VA    1000   41     330/ 23/ 29 1008.6R
CHESAPEAKE LGHT  1000   41     340/ 28/ 30 1009.4R
WILLOUBY STN VA  1000   40     340/ 21/ 24 1010.9R
S CRANEY ISL VA  1000          340/ 15/ 25 1010.5R
CAPE HENRY BUOY  1028      40                N/A     6/ 4   2/11
1ST LANDING BUOY 1100   39     340/ 23/ 29 1011.0R   5/ 4
OFFSHORE WE BUOY 1011      41                N/A     6/11   5/11
64NM E OF VA BCH 1050   44 56  350/ 25/ 31 1007.5R   9/ 7
DUCK PIER NC     1000   42 41  340/ 19/ 25 1008.4R
44056 DUCK FRF   1011      42                N/A     5/ 9   2/11
OREGON INLET NC  1000   42 45  320/ 14/ 17 1009.4R
HATTERAS NC      1000   44 54  320/ 20/ 25 1010.2R
CAPE LOOKOUT NC  1100   42     310/ 12/ 15 1012.3R
$$


USA.gov is the U.S. government's official web portal to all federal, state and local government web resources and services.